Weather History for Lake Charles, LA

Change the Weather History Date:

Tuesday, September 2, 2014

  Actual Average Record
Temperature  
Mean Temperature 84 °F -  
Max Temperature 91 °F 88 °F 102 °F (2000)
Min Temperature 77 °F 74 °F 55 °F (2007)
Cooling Degree Days 19    
Growing Degree Days 34 (Base 50)    
Moisture  
Dew Point 75 °F    
Average Humidity 82    
Maximum Humidity 94    
Minimum Humidity 55    
Precipitation  
Precipitation 0.00 in - - ()
Sea Level Pressure  
Sea Level Pressure 30.00 in    
Wind  
Wind Speed 5 mph (SSE)    
Max Wind Speed 15 mph    
Max Gust Speed 18 mph    
Visibility 10 miles    
Events Thunderstorm    
Averages and records for this station are not official NWS values.
T = Trace of Precipitation, MM = Missing Value Source: NWS Daily Summary

Daily Weather History Graph

Daily Weather History Graph

Search for Another Location

Airport:

Trip Planner

Search our weather history database for the weather conditions in past years. The results will help you decide how hot, cold, wet, or windy it might be!

Date:

Astronomy

Sep. 02, 2014 Rise Set
Actual Time 6:49 AM CDT 7:33 PM CDT
Civil Twilight 6:25 AM CDT 7:58 PM CDT
Nautical Twilight 5:56 AM CDT 8:26 PM CDT
Astronomical Twilight 5:27 AM CDT 8:56 PM CDT
Moon 2:04 PM CDT (9/2) 12:05 AM CDT (9/2)
Length of Visible Light 13h 32m
Length of Day
12h 43m
First Quarter, 53% of the Moon is Illuminated
Sep 2
First Quarter
Sep 8
Full
Sep 15
Last Quarter
Sep 24
New
Oct 1
First Quarter

Hourly Weather History & Observations

Time (CDT) Temp. Heat Index Dew Point Humidity Pressure Visibility Wind Dir Wind Speed Gust Speed Precip Events Conditions
12:15 AM 79.0 °F - 76.1 °F 91% 29.98 in 10.0 mi SSE 5.8 mph - N/A   Clear
12:35 AM 79.2 °F - 76.1 °F 90% 29.98 in 10.0 mi SSE 5.8 mph - N/A   Clear
12:55 AM 78.8 °F - 76.1 °F 91% 29.97 in 10.0 mi SSE 4.6 mph - N/A   Clear
1:15 AM 78.3 °F - 75.9 °F 92% 29.97 in 10.0 mi SSE 5.8 mph - N/A   Clear
1:35 AM 78.6 °F - 76.1 °F 92% 29.97 in 10.0 mi SSE 3.5 mph - N/A   Clear
1:55 AM 77.9 °F - 75.4 °F 92% 29.97 in 10.0 mi Calm Calm - N/A   Clear
2:15 AM 77.9 °F - 75.9 °F 94% 29.97 in 10.0 mi SE 4.6 mph - N/A   Clear
2:35 AM 78.3 °F - 76.1 °F 93% 29.97 in 10.0 mi South 3.5 mph - N/A   Clear
2:55 AM 77.9 °F - 75.6 °F 92% 29.98 in 10.0 mi SSE 5.8 mph - N/A   Clear
3:15 AM 77.7 °F - 75.6 °F 93% 29.97 in 10.0 mi SE 4.6 mph - N/A   Clear
3:35 AM 77.9 °F - 76.1 °F 94% 29.98 in 10.0 mi SE 3.5 mph - N/A   Clear
3:55 AM 78.1 °F - 76.1 °F 94% 29.99 in 10.0 mi Calm Calm - N/A   Scattered Clouds
4:15 AM 78.1 °F - 76.1 °F 94% 29.98 in 10.0 mi Calm Calm - N/A   Scattered Clouds
6:00 AM 78.8 °F - 75.2 °F 89% 30.00 in 7.0 mi ENE 3.5 mph - N/A   Clear
6:55 AM 77.0 °F - 75.2 °F 94% 30.00 in 7.0 mi ENE 3.5 mph - N/A   Clear
8:45 AM 82.4 °F 90.9 °F 77.0 °F 84% 30.02 in 10.0 mi SSE 11.5 mph - N/A   Clear
10:50 AM 89.6 °F 98.2 °F 73.4 °F 59% 30.04 in 10.0 mi South 11.5 mph - N/A   Scattered Clouds
11:50 AM 87.8 °F 93.8 °F 71.6 °F 58% 30.05 in 10.0 mi South 9.2 mph - N/A   Scattered Clouds
12:50 PM 89.6 °F 98.2 °F 73.4 °F 59% 30.04 in 10.0 mi South 10.4 mph - N/A   Scattered Clouds
1:03 PM 91.4 °F 100.1 °F 73.4 °F 55% 30.04 in 10.0 mi South 12.7 mph 17.3 mph N/A Thunderstorm Thunderstorm
1:48 PM 89.6 °F 98.2 °F 73.4 °F 59% 30.01 in 10.0 mi South 15.0 mph 18.4 mph N/A   Scattered Clouds
2:50 PM 91.4 °F 100.1 °F 73.4 °F 55% 30.00 in 10.0 mi South 13.8 mph - N/A   Scattered Clouds
3:55 PM 89.6 °F 98.2 °F 73.4 °F 59% 29.98 in 10.0 mi South 11.5 mph - N/A   Scattered Clouds
4:50 PM 87.8 °F 95.6 °F 73.4 °F 62% 29.98 in 10.0 mi South 6.9 mph - N/A   Scattered Clouds
6:50 PM 87.8 °F 95.6 °F 73.4 °F 62% 30.01 in 10.0 mi SSW 3.5 mph - N/A   Scattered Clouds
7:50 PM 82.4 °F 89.5 °F 75.2 °F 79% 30.01 in 10.0 mi SSE 4.6 mph - N/A   Partly Cloudy
8:50 PM 80.6 °F 86.2 °F 75.2 °F 84% 30.01 in 10.0 mi ESE 5.8 mph - N/A   Clear
9:15 PM 79.2 °F - 74.3 °F 85% 30.01 in 10.0 mi ESE 6.9 mph - N/A   Clear
9:35 PM 78.6 °F - 74.1 °F 86% 30.00 in 10.0 mi ESE 6.9 mph - N/A   Clear
9:50 PM 80.6 °F 86.2 °F 75.2 °F 84% 30.01 in 10.0 mi East 8.1 mph - N/A   Clear
9:55 PM 78.1 °F - 74.3 °F 88% 29.99 in 10.0 mi SE 8.1 mph - N/A   Clear
10:15 PM 78.4 °F - 75.2 °F 90% 29.99 in 10.0 mi SE 5.8 mph - N/A   Clear
10:35 PM 78.1 °F - 74.7 °F 89% 30.00 in 10.0 mi East 3.5 mph - N/A   Clear
10:55 PM 77.9 °F - 74.7 °F 90% 30.01 in 10.0 mi Calm Calm - N/A   Clear
11:15 PM 77.9 °F - 74.3 °F 89% 30.00 in 10.0 mi Calm Calm - N/A   Clear
11:35 PM 77.4 °F - 74.3 °F 90% 30.00 in 10.0 mi Calm Calm - N/A   Clear
11:55 PM 77.4 °F - 74.3 °F 90% 29.99 in 10.0 mi Calm Calm - N/A   Clear